Content
SEND FEEDBACK

Daily
Averages
Monthly
Summary
United States of America

DEDEDO, GUAM


Home > North America > United States > Guam
Elevation: 364 feet     Latitude: 13 33N     Longitude: 144 49E

WEATHER
 
SELECT A DAY
Number of Records: 209,106;   Date Range: 1/1/95 - 8/12/14
 
SHARE

PRINT THIS DATA

[ ← Previous Day ]
WEATHER ALMANAC - APRIL 28, 2014
[ Next Day → ]
[ °C ]   °F
Weather ElementAverageHighLow
Temperature82.1 °F87.8 °F (1:12 pm)77 °F (3:54 am)
Dewpoint75 °F78.1 °F (9:54 am)72 °F (2:54 pm)
Humidity79.6 %94 % (3:54 am)63 % (2:54 pm)
Barometer29.77 in29.83 in (8:34 am)29.72 in (3:54 pm)
Wind Speed8.2 mph15 mph (10:54 am)
Weather ElementAverage
Visibility10 mi
Wind DirectionSSE (158.3 °)

Weather ElementTotal
Precipitation---
Cooling Degree Days17.4 (Base 65)
Growing Degree Days32.4 (Base 50)
Averaged from 30 records on April 28, 2014
WEATHER CONDITIONS BREAKOUT
WIND DIRECTION BREAKOUT
WEATHER BY HOUR - APRIL 28, 2014
[ °C ]   °F
Local TimeTemperatureDewpointHumidityBarometerVisibilityWind DirectionWind SpeedGust SpeedPrecipitationEventsConditions
1:54 AM78.1 °F75.9 °F93 %29.75 in10.0 miENE (70°)6.9 mphClear
2:54 AM79.0 °F75.0 °F88 %29.75 in10.0 miENE (70°)6.9 mphOvercast
3:54 AM77.0 °F75.0 °F94 %29.74 in10.0 miNNE (20°)3.5 mphPartly Cloudy
4:54 AM78.1 °F75.9 °F93 %29.75 in10.0 miNE (50°)5.8 mphClear
5:54 AM77.0 °F75.0 °F94 %29.75 in10.0 miNorth (350°)4.6 mphClear
6:54 AM80.1 °F75.9 °F87 %29.78 in10.0 miNE (50°)8.1 mphClear
7:54 AM82.9 °F77.0 °F82 %29.79 in10.0 miNE (50°)8.1 mphClear
8:34 AM80.6 °F75.2 °F84 %29.83 in10.0 miEast (80°)11.5 mphMostly Cloudy
8:54 AM81.0 °F75.0 °F82 %29.82 in10.0 miENE (70°)12.7 mphOvercast
9:54 AM82.9 °F78.1 °F85 %29.81 in10.0 miENE (60°)11.5 mph0.00 inMostly Cloudy
10:54 AM84.0 °F75.9 °F76 %29.80 in10.0 miNE (50°)15.0 mphMostly Cloudy
11:04 AM82.4 °F75.2 °F79 %29.82 in10.0 miENE (70°)10.4 mphMostly Cloudy
11:54 AM84.9 °F75.0 °F72 %29.79 in10.0 miENE (60°)11.5 mphPartly Cloudy
12:54 PM87.1 °F73.9 °F65 %29.77 in10.0 miNE (40°)6.9 mphScattered Clouds
1:12 PM87.8 °F75.2 °F66 %29.78 in10.0 miNNW (340°)8.1 mphMostly Cloudy
1:54 PM87.1 °F75.0 °F67 %29.75 in10.0 miENE (60°)10.4 mphMostly Cloudy
2:54 PM86.0 °F72.0 °F63 %29.73 in10.0 miNE (50°)8.1 mphClear
3:54 PM84.9 °F72.0 °F65 %29.72 in10.0 miNE (40°)9.2 mphScattered Clouds
4:18 PM84.2 °F75.2 °F74 %29.74 in10.0 miNNW (330°)10.4 mphMostly Cloudy
4:28 PM84.2 °F75.2 °F74 %29.74 in10.0 miNNW (340°)9.2 mphScattered Clouds
4:54 PM84.9 °F75.0 °F72 %29.73 in10.0 miNorth (360°)8.1 mphClear
5:54 PM84.0 °F73.0 °F69 %29.74 in10.0 miNNE (30°)8.1 mphScattered Clouds
6:06 PM82.4 °F73.4 °F74 %29.77 in10.0 miNNE (30°)5.8 mphMostly Cloudy
6:26 PM80.6 °F73.4 °F79 %29.78 in10.0 miNorth (10°)8.1 mphScattered Clouds
6:54 PM81.0 °F73.9 °F79 %29.76 in10.0 miNorth (360°)6.9 mphPartly Cloudy
7:54 PM80.1 °F75.0 °F85 %29.78 in10.0 miNorth (360°)4.6 mphClear
8:54 PM80.1 °F75.9 °F87 %29.79 in10.0 miNorth (360°)5.8 mphPartly Cloudy
9:54 PM80.1 °F75.0 °F85 %29.80 in10.0 miNNW (340°)5.8 mphClear
10:54 PM80.1 °F75.9 °F87 %29.80 in10.0 miNW (320°)5.8 mphScattered Clouds
11:54 PM80.1 °F75.9 °F87 %29.78 in10.0 miNNW (330°)6.9 mphScattered Clouds
Hourly data recorded from PGUM, located miles away from Dededo, Guam







STORIES FROM OUR PARTNERS